Flag for Germany Weather past 2 weeks in Tönisvorst, North Rhine-Westphalia, Germany

Now
55 °F

Clear.


Feels Like: 55 °F
Forecast: 49 / 62 °F
Wind: 3 mph from North

Location: Monchengladbach Airport

Current Time: May 28, 2015 at 10:52:15 PM

Latest Report: May 28, 2015 at 8:20 PM


Visibility: 10 mi

Pressure: 29.95 "Hg

Humidity: 94%

Dew point: 54 °F

Location of TönisvorstLocation

Historic Weather in Tönisvorst — Graph

°F

Tönisvorst temperature yesterday

Maximum temperature yesterday: 66 °F (at 5:20 PM)
Minimum temperature yesterday: 54 °F (at 7:50 AM)
Average temperature yesterday: 61 °F

Past Weeks' High & Low Weather Summary

 TemperatureHumidityPressure
High70 °F (May 18, 4:50 PM)100% (May 16, 2:50 PM)30.33 "Hg (May 16, 2:50 PM)
Low41 °F (May 21, 6:20 AM)37% (May 14, 5:20 PM)29.65 "Hg (May 18, 6:20 PM)
Average59 °F60%30.07 "Hg
* Reported May 13 8:20 PM — May 28 8:20 PM, Tönisvorst, Weather by CustomWeather, © 2015

Note: Actual official high and low records may vary slightly from our data, if they occured in-between our weather recording intervals... More about our weather records

Advertising

Tönisvorst weather history for previous 24 hours

 ConditionsComfort  
Time TempWeatherWind HumidityBarometerVisibility
8:20 PM
Thu, May 28
55 °FClear.3 mph94%29.95 "Hg10 mi
7:50 PM55 °FPassing clouds.3 mph94%29.95 "HgN/A
7:20 PM55 °FPassing clouds.7 mph94%29.95 "HgN/A
6:50 PM57 °FScattered showers. Partly cloudy.9 mph88%29.92 "HgN/A
6:20 PM55 °FPartly cloudy.5 mph94%29.92 "HgN/A
5:50 PM55 °FSprinkles. Partly cloudy.10 mph88%29.95 "HgN/A
5:20 PM55 °FSprinkles. Partly cloudy.13 mph82%29.95 "HgN/A
4:50 PM61 °FSprinkles. Passing clouds.16 mph63%29.92 "HgN/A
4:20 PM66 °FPassing clouds.12 mph56%29.92 "HgN/A
3:50 PM64 °FPassing clouds.9 mph64%29.92 "HgN/A
3:20 PM63 °FPassing clouds.12 mph64%29.92 "HgN/A
2:50 PM63 °FPartly cloudy.12 mph59%29.92 "HgN/A
2:20 PM63 °FPassing clouds.14 mph56%29.95 "HgN/A
1:50 PM64 °FPassing clouds.14 mph49%29.92 "HgN/A
1:20 PM63 °FPassing clouds.14 mph52%29.92 "HgN/A
12:50 PM64 °FSunny.9 mph49%29.92 "Hg10 mi
12:20 PM64 °FPassing clouds.10 mph49%29.92 "HgN/A
11:50 AM63 °FScattered clouds.12 mph52%29.95 "HgN/A
11:20 AM63 °FPartly sunny.14 mph56%29.95 "HgN/A
10:50 AM61 °FScattered clouds.10 mph63%29.95 "HgN/A
10:20 AM59 °FPassing clouds.13 mph63%29.95 "HgN/A
9:50 AM61 °FPassing clouds.13 mph59%29.95 "HgN/A
9:20 AM61 °FPassing clouds.10 mph59%29.95 "HgN/A
8:50 AM59 °FPassing clouds.9 mph63%29.95 "HgN/A
8:20 AM59 °FPassing clouds.9 mph63%29.95 "HgN/A
7:50 AM59 °FPassing clouds.9 mph63%29.95 "HgN/A
7:20 AM59 °FSunny.7 mph63%29.95 "Hg10 mi
Weather by CustomWeather, © 2015

See weather overviewHow to use our weather pages